Location: Newark
(48.4660°N, 135.0670°E)
Time: 02:31:47
(UTC+00:00)

ISS - Visible Passes

Search period start: 22 September 2020 00:00
Search period end: 02 October 2020 00:00
Orbit: 419 x 420 km, 51.6° (Epoch: 22 September)

Date Brightness Start Highest point End Pass type
(mag) Time Alt. Az. Time Alt. Az. Time Alt. Az.
22 Sep -3.7 10:23:06 10° WSW 10:26:29 78° NNW 10:28:10 27° ENE visible
22 Sep -0.8 12:00:16 10° WNW 12:01:08 16° WNW 12:01:08 16° WNW visible
23 Sep -3.8 09:35:42 10° WSW 09:39:04 80° SSE 09:42:27 10° ENE visible
23 Sep -2.7 11:12:46 10° W 11:15:36 44° NNW 11:15:36 44° NNW visible
24 Sep -3.1 10:25:15 10° W 10:28:34 52° N 10:30:00 29° NE visible
24 Sep -0.6 12:02:22 10° WNW 12:02:58 14° WNW 12:02:58 14° WNW visible
25 Sep -3.4 09:37:43 10° W 09:41:04 61° NNW 09:44:22 10° ENE visible
25 Sep -2.3 11:14:53 10° WNW 11:17:19 37° NW 11:17:19 37° NW visible
26 Sep -3.0 10:27:23 10° WNW 10:30:39 46° N 10:31:39 34° NE visible
26 Sep -0.4 12:04:19 10° WNW 12:04:36 12° WNW 12:04:36 12° WNW visible
27 Sep -3.0 09:39:50 10° W 09:43:07 47° N 09:45:57 13° ENE visible
27 Sep -2.0 11:16:52 10° WNW 11:18:54 33° NW 11:18:54 33° NW visible
28 Sep -3.4 10:29:23 10° WNW 10:32:42 54° N 10:33:12 48° NE visible
29 Sep -3.2 09:41:52 10° WNW 09:45:10 49° N 09:47:30 17° ENE visible
29 Sep -1.7 11:18:44 10° WNW 11:20:28 27° WNW 11:20:28 27° WNW visible
30 Sep -3.9 10:31:15 10° WNW 10:34:38 84° NNE 10:34:47 80° ENE visible
01 Oct -3.6 09:43:44 10° WNW 09:47:07 66° NNE 09:49:07 22° E visible
01 Oct -1.2 11:20:42 10° W 11:22:04 20° W 11:22:04 20° W visible
